LYBELYTV

Guest
Details From LYBE - Belgrade
To LYTV - Tivat
Flight Number -
Tags decoded
Created
Modified
Stats Distance 169 nm / 312 km
Max Altitude 0 ft / 0 m
Waypoints 4
Social Downloads 4
Likes 0
Share VATSIM

Download

Looking for another format? Having issues loading an existing format? Contact us
Advertisement - Login to hide

Notes

Requested: LYBE VAL N732 MOJ LYTV Unmatched points: N732

Route

LYBE VAL MOJ LYTV

ID Type Via Altitude Latitude Longitude Leg Dist Tot Dist Heading (true) Name
O LYBE APT - 0 ft / 0 m 44.81843˚ 20.30921˚ - 0 nm - Belgrade
VAL NDB - 0 ft / 0 m 44.32119˚ 19.87506˚ 35 nm 35 nm 212° / 212° VALJEVO NDB
MOJ NDB - 0 ft / 0 m 42.94464˚ 19.57553˚ 83 nm 118 nm 189° / 189° MOJKOVAC NDB
O LYTV APT - 0 ft / 0 m 42.40466˚ 18.72329˚ 49 nm 168 nm 230° / 229° Tivat

Altitude Profile

Advertisement - Login to hide

Weather


0- 5 10 15 20 25 30 35+ Temperature / ° C

Clouds and Precipitation
Forecast for 2018-05-24 12:00 UTC. Updated an hour ago

Ground ~20,000 ft ~40,000 ft Winds

LYBE

Details ICAO LYBE (BEG)
Name Belgrade
Region Serbia and Montenegro
Timezone Europe/Belgrade (UTC+2.0)
Stats Elevation 335 ft / 102 m (AMSL)
Location 44.818429° 20.309211°
Runways 1
Magnetic Variation 4.720° E

METAR

LYBE 241030Z VRB05KT 9999 SCT040 27/14 Q1017 NOSIG

Decode

TAF

TAF LYBE 240500Z 2406/2506 09005KT CAVOK TX28/2413Z TN16/2503Z PROB40 TEMPO 2413/2420 VRB15KT 5000 TSRA SCT030CB BKN040 PROB40 TEMPO 2500/2504 1500 BR

Decode

Departure Runways

ID Width Length Bearing (true) Bearing (mag) Surface Threshold Offset Overrun Length
12 148 ft / 45 m 11,138 ft / 3,395 m 122.00° 117.28° Asphalt 1,000 ft / 305 m 0 ft / 0 m
30 148 ft / 45 m 11,138 ft / 3,395 m 302.03° 297.31° Asphalt 1,312 ft / 400 m 0 ft / 0 m

LYTV

Details ICAO LYTV (TIV)
Name Tivat
Region Serbia and Montenegro
Timezone Europe/Podgorica (UTC+2.0)
Stats Elevation 20 ft / 6 m (AMSL)
Location 42.404657° 18.723295°
Runways 1
Magnetic Variation 4.209° E

METAR

LYTV 241030Z 23003KT 160V330 9999 FEW020 25/18 Q1015 NOSIG

Decode

TAF

TAF LYTV 240500Z 2406/2506 21007KT 9999 FEW023 SCT040 TX28/2413Z TN14/2503Z PROB40 TEMPO 2410/2418 5000 TSRA FEW020 FEW027CB BKN040

Decode

Destination Runways

ID Width Length Bearing (true) Bearing (mag) Surface Threshold Offset Overrun Length
14 148 ft / 45 m 8,206 ft / 2,501 m 139.03° 134.82° Asphalt 300 ft / 91 m 0 ft / 0 m
32 148 ft / 45 m 8,206 ft / 2,501 m 319.04° 314.83° Asphalt 300 ft / 91 m 0 ft / 0 m

Approach Navaids

Runway Type Ident Frequency Range Bearing (true) Bearing (mag) Slope Elevation
32 Localiser TIV 111.30 MHz 50 nm / 93 km 339.00° 334.79° - 56 ft / 17 m (AMSL)
32 DME TIV 111.30 MHz 18 nm / 33 km - - - 49 ft / 15 m (AMSL)

Popular Alternatives